Time_in_sec,Mx,My,Mz
1323444618.54849315,-0.28521556,0.50103706,-0.82314301
1323444618.60049677,-0.28646931,0.49993652,-0.82027268
1323444618.64849114,-0.28596660,0.50029498,-0.82050258
1323444618.70164442,-0.28764176,0.50201809,-0.82239074
1323444618.74918318,-0.28646347,0.50188339,-0.82219785
1323444618.80151343,-0.28693432,0.50019568,-0.82157439
1323444618.84849048,-0.28699622,0.50143367,-0.82477260
1323444618.90165210,-0.28608647,0.49971640,-0.82267153
1323444618.94987178,-0.28658086,0.50019836,-0.82219225
1323444619.00166392,-0.28574574,0.50044322,-0.82342267
1323444619.04934239,-0.28690830,0.50237930,-0.82311779
1323444619.09827542,-0.28681105,0.49836785,-0.81964302
1323444619.14863086,-0.28708807,0.50044221,-0.82196689
1323444619.20051599,-0.28638408,0.50006390,-0.82103354
1323444619.24849987,-0.28602019,0.50237346,-0.82345146
1323444619.30164909,-0.28715977,0.49850786,-0.82119238
1323444619.35012436,-0.28803012,0.50081915,-0.82253093
1323444619.40062809,-0.28605089,0.49886757,-0.82215375
1323444619.44854093,-0.28603783,0.50103033,-0.82165867
1323444619.49813056,-0.28678042,0.49973187,-0.82347429
1323444619.54908800,-0.28485930,0.50164068,-0.82363755
1323444619.60054183,-0.28761834,0.49888608,-0.82236719
1323444619.64993858,-0.28679675,0.50093788,-0.82361120
1323444619.70051932,-0.28587505,0.49839962,-0.82367009
1323444619.74852419,-0.28521580,0.50029200,-0.82097119
1323444619.80052638,-0.28667721,0.49862960,-0.82180405
1323444619.84850836,-0.28583995,0.50152045,-0.82267088
1323444619.90049815,-0.28614423,0.49982435,-0.82140106
1323444619.94862962,-0.28668880,0.50115788,-0.82169521
1323444620.00553393,-0.28540432,0.50030458,-0.82200116
1323444620.04852271,-0.28488383,0.50296855,-0.82390320
1323444620.10051632,-0.28648853,0.49839976,-0.82306647
1323444620.14847422,-0.28789729,0.50023907,-0.82481349
1323444620.20065999,-0.28588307,0.50044608,-0.82355767
1323444620.24862885,-0.28586572,0.50008190,-0.82329923
1323444620.29786015,-0.28674293,0.49960446,-0.82283413
1323444620.34864497,-0.28487954,0.50044161,-0.82413989
1323444620.40064406,-0.28701669,0.49948964,-0.82310319
1323444620.44950986,-0.28636822,0.50164801,-0.82282811
1323444620.50166774,-0.28567910,0.49934793,-0.82239169
1323444620.54849982,-0.28596005,0.50019681,-0.82266802
1323444620.59773326,-0.28722078,0.50080502,-0.82197672
1323444620.64864302,-0.28590873,0.49996981,-0.82406545
1323444620.69772053,-0.28676489,0.49960864,-0.82321763
1323444620.74850392,-0.28609446,0.50058329,-0.82497203
1323444620.80554438,-0.28746787,0.50082874,-0.82402951
1323444620.84857488,-0.28518236,0.50225699,-0.82467914
1323444620.89763403,-0.28584918,0.50080049,-0.82292110
1323444620.94957256,-0.28775996,0.50023621,-0.82467848
1323444621.00154567,-0.28595093,0.49995449,-0.82253832
1323444621.04851174,-0.28568596,0.50201899,-0.82445014
1323444621.09759116,-0.28690132,0.49949098,-0.82335174
1323444621.14909077,-0.28518698,0.50189698,-0.82480425
1323444621.20152593,-0.28619340,0.50033820,-0.82446599
1323444621.24851727,-0.28714725,0.50131887,-0.82516241
1323444621.30058146,-0.28851998,0.49951926,-0.82446009
1323444621.35000324,-0.28428331,0.50176793,-0.82488132
1323444621.40153742,-0.28638554,0.50083262,-0.82549953
1323444621.44858027,-0.28520799,0.50060117,-0.82759988
1323444621.50453377,-0.28612834,0.50022888,-0.82560861
1323444621.54944754,-0.28567594,0.50047660,-0.82673258
1323444621.60051370,-0.28731218,0.50012404,-0.82592756
1323444621.64848876,-0.28488180,0.50347269,-0.82607317
1323444621.70053339,-0.28532833,0.49853244,-0.82542527
1323444621.74848247,-0.28706756,0.50120670,-0.82604933
1323444621.80053520,-0.28794217,0.49940559,-0.82570207
1323444621.84853554,-0.28634512,0.50108886,-0.82702845
1323444621.89830494,-0.28779563,0.50012273,-0.82531685
1323444621.94851756,-0.28464755,0.50203121,-0.82668728
1323444622.00052500,-0.28563204,0.50046825,-0.82596546
1323444622.04850054,-0.28544956,0.50204396,-0.82711363
1323444622.10063338,-0.28704494,0.49915749,-0.82590604
1323444622.14849854,-0.28486839,0.50070339,-0.82618016
1323444622.20164084,-0.28537482,0.49986452,-0.82607448
1323444622.24850440,-0.28657600,0.50012380,-0.82665187
1323444622.30059338,-0.28725386,0.49936783,-0.82273299
1323444622.34863138,-0.28708401,0.50145042,-0.82630682
1323444622.38910842,-0.28679663,0.50072062,-0.82590359
1323444622.44851685,-0.28538135,0.49996269,-0.82390904
1323444622.50062323,-0.28770143,0.50022507,-0.82365566
1323444622.54847813,-0.28619868,0.50084370,-0.82676381
1323444622.60163903,-0.28607249,0.50057912,-0.82458848
1323444622.64863062,-0.28500754,0.50212675,-0.82390398
1323444622.69802499,-0.28603491,0.50023443,-0.82624072
1323444622.74903131,-0.28662059,0.50217724,-0.82717872
1323444622.78918791,-0.28564870,0.49996695,-0.82405114
1323444622.84849191,-0.28719318,0.49964353,-0.82617253
1323444622.88964438,-0.28498006,0.50118250,-0.82580739
1323444622.94988203,-0.28407282,0.50175118,-0.82346779
1323444623.00052452,-0.28639185,0.50285542,-0.82309294
1323444623.04967165,-0.28492874,0.50213504,-0.82479185
1323444623.09789133,-0.28733253,0.49914223,-0.82413751
1323444623.14948916,-0.28544790,0.50202030,-0.82481945
1323444623.18956065,-0.28658581,0.50241119,-0.82654130
1323444623.24998856,-0.28593257,0.49925259,-0.82457137
1323444623.28855276,-0.28692055,0.49913380,-0.82373255
1323444623.34972644,-0.28640568,0.50059587,-0.82588130
1323444623.40163374,-0.28536087,0.50190675,-0.82557851
1323444623.44159174,-0.28367364,0.50032502,-0.82572973
1323444623.49771953,-0.28636506,0.50277674,-0.82716900
1323444623.54862738,-0.28460172,0.50156468,-0.82821077
1323444623.60052133,-0.28716752,0.50011981,-0.82566470
1323444623.64852118,-0.28658670,0.50253165,-0.82654220
1323444623.68926668,-0.28634343,0.49988565,-0.82714725
1323444623.74948645,-0.28752175,0.50002033,-0.82734013
1323444623.80054355,-0.28579953,0.50059712,-0.82661271
1323444623.84947157,-0.28617999,0.50302875,-0.82843506
1323444623.90065241,-0.28554851,0.50061935,-0.82902050
1323444623.94865751,-0.28677523,0.50254422,-0.82757211
1323444624.00065041,-0.28650081,0.50061399,-0.82754332
1323444624.04851127,-0.28691325,0.50341254,-0.82987982
1323444624.10051203,-0.28554243,0.50021058,-0.82442939
1323444624.14855003,-0.28602645,0.50085759,-0.82828373
1323444624.20052290,-0.28612077,0.50097251,-0.82765251
1323444624.24154806,-0.28534532,0.50060397,-0.82773489
1323444624.30046606,-0.28531945,0.50300485,-0.82698590
1323444624.34073663,-0.28473997,0.50286752,-0.82593369
1323444624.40058661,-0.28467751,0.50408185,-0.82695842
1323444624.44850254,-0.28555506,0.50189710,-0.82444209
1323444624.50165224,-0.28653380,0.50131869,-0.82576603
1323444624.54851532,-0.28544044,0.50180167,-0.82698399
1323444624.60051465,-0.28550124,0.50056362,-0.82366502
1323444624.64232707,-0.28703561,0.50083977,-0.82553518
1323444624.69232106,-0.28446057,0.50300461,-0.82783097
1323444624.74852657,-0.28543237,0.50307661,-0.82214987
1323444624.78965068,-0.28643802,0.50043505,-0.82193124
1323444624.84995794,-0.28682172,0.49959612,-0.82194626
1323444624.90164375,-0.28681600,0.50176024,-0.82157904
1323444624.94849896,-0.28485841,0.50152022,-0.82363665
1323444624.99817896,-0.28562945,0.50032413,-0.82367033
1323444625.04850483,-0.28617945,0.50238049,-0.82396996
1323444625.10377598,-0.28535479,0.50031847,-0.82340038
1323444625.14900374,-0.28342107,0.50054085,-0.82355094
1323444625.20148277,-0.28473470,0.50236201,-0.82363588
1323444625.24847198,-0.28670701,0.50046295,-0.82436752
1323444625.30048871,-0.28569382,0.49838844,-0.82276797
1323444625.34849906,-0.28636989,0.50167167,-0.82512236
1323444625.40156341,-0.28643528,0.49889413,-0.82434148
1323444625.44132614,-0.28647089,0.50092250,-0.82244629
1323444625.50050020,-0.28582680,0.50346595,-0.82446814
1323444625.54177570,-0.28583962,0.50322783,-0.82472205
1323444625.58850479,-0.28586459,0.50070643,-0.82547009
1323444625.64952683,-0.28576407,0.49996558,-0.82380259
1323444625.70053530,-0.28485727,0.50332433,-0.82339454
1323444625.74051881,-0.28591120,0.50107622,-0.82623994
1323444625.80156302,-0.28591311,0.50153440,-0.82394940
1323444625.84906268,-0.28563002,0.50215197,-0.82572246
1323444625.90348506,-0.28669408,0.50166339,-0.82399309
1323444625.94852638,-0.28601184,0.50203437,-0.82561505
1323444626.00069356,-0.28630325,0.50057638,-0.82409137
1323444626.04452133,-0.28534445,0.50166309,-0.82532102
1323444626.08864260,-0.28686890,0.50179368,-0.82476819
1323444626.14850807,-0.28735247,0.50083011,-0.82427806
1323444626.20063210,-0.28642756,0.50274193,-0.82373124
1323444626.24054313,-0.28545791,0.50238305,-0.82495004
1323444626.29775858,-0.28442952,0.50393766,-0.82490474
1323444626.34054804,-0.28644657,0.50312978,-0.82628387
1323444626.40050960,-0.28409734,0.50189948,-0.82614648
1323444626.44948339,-0.28432959,0.50502461,-0.82528937
1323444626.48933578,-0.28645161,0.50010014,-0.82447839
1323444626.54050994,-0.28667697,0.49937466,-0.82397580
1323444626.60054636,-0.28611809,0.50179070,-0.82523686
1323444626.64053631,-0.28608140,0.50274605,-0.82447696
1323444626.68957496,-0.28647605,0.50121075,-0.82703650
1323444626.74972105,-0.28585997,0.50106645,-0.82534498
1323444626.78864241,-0.28558826,0.50067717,-0.82290596
1323444626.84018993,-0.28591692,0.50009161,-0.82419419
1323444626.89264369,-0.28669026,0.50310618,-0.82374823
1323444626.94052267,-0.28492483,0.50454015,-0.82442641
1323444626.98850107,-0.28623158,0.50251073,-0.82486588
1323444627.04865670,-0.28683683,0.50238901,-0.82413352
1323444627.09062147,-0.28412324,0.50185776,-0.82206947
1323444627.14074731,-0.28764561,0.50057530,-0.82263559
1323444627.20053482,-0.28732309,0.50178683,-0.82364607
1323444627.24072552,-0.28583500,0.50358778,-0.82459694
1323444627.28855324,-0.28541064,0.50114781,-0.82200748
1323444627.35023284,-0.28643960,0.50260061,-0.82169187
1323444627.38848853,-0.28722697,0.50261056,-0.82186252
1323444627.44849038,-0.28535828,0.50176263,-0.82328343
1323444627.49836016,-0.28443369,0.50196713,-0.82068539
1323444627.54948807,-0.28465837,0.50465631,-0.82428521
1323444627.60051060,-0.28546658,0.49983531,-0.82314819
1323444627.64973450,-0.28494632,0.50175416,-0.82287848
1323444627.70152879,-0.28695524,0.49986213,-0.82424939
1323444627.74848223,-0.28488585,0.50128484,-0.82414621
1323444627.79830480,-0.28463078,0.49921468,-0.82220590
1323444627.84964395,-0.28666213,0.50129646,-0.82347894
1323444627.89966321,-0.28560379,0.50080043,-0.82316256
1323444627.94853425,-0.28619871,0.50202328,-0.82435083
1323444628.00052714,-0.28584087,0.50164092,-0.82267177
1323444628.04850054,-0.28526282,0.50227231,-0.82608551
1323444628.10068488,-0.28701770,0.49864778,-0.82322466
1323444628.14851022,-0.28670701,0.50046295,-0.82436752
1323444628.20155573,-0.28665018,0.50047547,-0.82563895
1323444628.24862194,-0.28542334,0.50069243,-0.82455373
1323444628.29106951,-0.28561020,0.50068134,-0.82328951
1323444628.34862852,-0.28578782,0.50021070,-0.82418793
1323444628.40553331,-0.28593135,0.50201905,-0.82420868
1323444628.44852972,-0.28528601,0.50068963,-0.82441878
1323444628.50052309,-0.28714278,0.50189608,-0.82274491
1323444628.54856396,-0.28566504,0.50117296,-0.82418811
1323444628.60052204,-0.28681904,0.49923474,-0.82194358
1323444628.64863157,-0.28706869,0.50058216,-0.82387841
1323444628.69805789,-0.28466341,0.50044715,-0.82489270
1323444628.74851465,-0.28439778,0.50164610,-0.82463181
1323444628.80053377,-0.28697997,0.49926540,-0.82475626
1323444628.85260224,-0.28551272,0.50287467,-0.82584858
1323444628.90062666,-0.28669691,0.50106251,-0.82411635
1323444628.95002294,-0.28630325,0.50057638,-0.82409137
1323444629.00106502,-0.28503141,0.50140953,-0.82440996
1323444629.04854155,-0.28658524,0.50058341,-0.82448918
1323444629.09781575,-0.28530458,0.49946693,-0.82262689
1323444629.14922667,-0.28673628,0.50046855,-0.82487893
1323444629.20454550,-0.28697988,0.50022769,-0.82463568
1323444629.24853444,-0.28406999,0.50117254,-0.82575744
1323444629.30087900,-0.28574583,0.49948093,-0.82354325
1323444629.34977937,-0.28446341,0.50358325,-0.82554132
1323444629.40062737,-0.28472194,0.50045830,-0.82591552
1323444629.44914460,-0.28478971,0.50092900,-0.82477564
1323444629.49767709,-0.28691471,0.50108063,-0.82565773
1323444629.54852724,-0.28485727,0.50214481,-0.82580751
1323444629.60154152,-0.28699270,0.49998957,-0.82488960
1323444629.64851379,-0.28664893,0.50206238,-0.82768923
1323444629.70052218,-0.28729111,0.50024027,-0.82554489
1323444629.74859905,-0.28534093,0.50021893,-0.82543796
1323444629.80151677,-0.28750545,0.49999386,-0.82479024
1323444629.84865618,-0.28612798,0.50193620,-0.82765979
1323444629.89952016,-0.28472275,0.50154108,-0.82579583
1323444629.94853115,-0.28600621,0.50205666,-0.82778144
1323444629.99764299,-0.28697211,0.50171638,-0.82885140
1323444630.04887676,-0.28298938,0.50237966,-0.82710874
1323444630.10052276,-0.28653219,0.49915317,-0.82600540
1323444630.14849305,-0.28595790,0.50048363,-0.82713038
1323444630.20152378,-0.28529221,0.50131559,-0.82671750
1323444630.24851179,-0.28673798,0.50049222,-0.82717317
1323444630.30063176,-0.28796774,0.49989161,-0.82608926
1323444630.34849119,-0.28587058,0.50325704,-0.82752764
1323444630.38850999,-0.28699237,0.50169688,-0.82694077
1323444630.44852519,-0.28584310,0.50231284,-0.82943106
1323444630.50050926,-0.28510535,0.50132668,-0.82798177
1323444630.54051137,-0.28677535,0.50158197,-0.82769269
1323444630.60051870,-0.28689063,0.50254291,-0.82732356
1323444630.65021515,-0.28442219,0.50275671,-0.82718986
1323444630.69826555,-0.28742450,0.50146860,-0.82772744
1323444630.74850011,-0.28495419,0.50240386,-0.82747138
1323444630.80554128,-0.28698787,0.50109458,-0.82693624
1323444630.84850264,-0.28630552,0.50242782,-0.82843763
1323444630.90164590,-0.28619507,0.50036186,-0.82676017
1323444630.94958496,-0.28566119,0.50025660,-0.82876921
1323444631.00050402,-0.28624541,0.50143075,-0.82524127
1323444631.04865074,-0.28634873,0.50157070,-0.82703209
1323444631.09811378,-0.28650394,0.49830577,-0.82561547
1323444631.14863968,-0.28538629,0.50217557,-0.82825810
1323444631.20052314,-0.28573740,0.50010413,-0.82558632
1323444631.24851394,-0.28460523,0.50300884,-0.82809377
1323444631.30052924,-0.28722268,0.49890408,-0.82451212
1323444631.35000157,-0.28601915,0.50203574,-0.82574290
1323444631.39375520,-0.28645152,0.50106245,-0.82435781
1323444631.44164133,-0.28541401,0.50237471,-0.82418293
1323444631.49811983,-0.28562191,0.50224733,-0.82330132
1323444631.54913187,-0.28584614,0.50214642,-0.82496959
1323444631.60058522,-0.28556079,0.50091249,-0.82239634
1323444631.64877629,-0.28581789,0.50129902,-0.82457966
1323444631.70052004,-0.28595251,0.50094044,-0.82471192
1323444631.74852657,-0.28723663,0.50232154,-0.82887024
1323444631.80164814,-0.28596726,0.49998096,-0.82508826
1323444631.84854746,-0.28565106,0.50203568,-0.82610506
1323444631.89250922,-0.28672963,0.50133264,-0.82692379
1323444631.94863057,-0.28627187,0.50203723,-0.82562935
1323444632.00053501,-0.28516513,0.50093049,-0.82454133
1323444632.04854155,-0.28537336,0.50337601,-0.82788360
1323444632.10122275,-0.28742382,0.50060308,-0.82555479
1323444632.14848495,-0.28517795,0.50069237,-0.82479519
1323444632.20161557,-0.28707489,0.50120813,-0.82617718
1323444632.24968863,-0.28581393,0.50134498,-0.82904023
1323444632.29768085,-0.28502136,0.49986720,-0.82669234
1323444632.34855294,-0.28725520,0.50109881,-0.82707834
1323444632.40054107,-0.28660426,0.50097126,-0.82704180
1323444632.44852710,-0.28636256,0.50049073,-0.82740748
1323444632.50053573,-0.28681326,0.49903974,-0.82640231
1323444632.54965711,-0.28732929,0.50123322,-0.82835776
1323444632.60053468,-0.28625113,0.49926659,-0.82560849
1323444632.64965081,-0.28686237,0.50169545,-0.82693362
1323444632.69768810,-0.28715739,0.49953976,-0.82782656
1323444632.74956656,-0.28555134,0.50119799,-0.82673085
1323444632.80053949,-0.28603140,0.49879026,-0.82635766
1323444632.84854174,-0.28649372,0.50414777,-0.83151877
1323444632.90055466,-0.28647232,0.50169122,-0.82691228
1323444632.94960260,-0.28578365,0.50218123,-0.82840735
1323444632.99764132,-0.28520608,0.50132251,-0.82747751
1323444633.04963660,-0.28452283,0.50253534,-0.82897800
1323444633.09754300,-0.28587744,0.50046831,-0.82572401
1323444633.14954495,-0.28653085,0.50170237,-0.82793504
1323444633.20151520,-0.28725061,0.50145882,-0.82695323
1323444633.24854136,-0.28595328,0.50084364,-0.82700521
1323444633.30052185,-0.28769511,0.49820229,-0.82606226
1323444633.34971881,-0.28547624,0.50072587,-0.82774293
1323444633.40052795,-0.28606406,0.50120229,-0.82663155
1323444633.44955397,-0.28650799,0.50157768,-0.82755059
1323444633.49840879,-0.28525731,0.50133228,-0.82837242
1323444633.54852653,-0.28619754,0.50146830,-0.82893467
1323444633.60555267,-0.28695521,0.49868256,-0.82666236
1323444633.64956522,-0.28686935,0.50340420,-0.82911271
1323444633.70157385,-0.28529221,0.50131559,-0.82671750
1323444633.75027466,-0.28597704,0.50108874,-0.82739061
1323444633.80152392,-0.28582260,0.49997672,-0.82482541
1323444633.84955025,-0.28483149,0.50240380,-0.82759213
1323444633.90052938,-0.28539035,0.49998775,-0.82633108
1323444633.94955111,-0.28700238,0.50205970,-0.82707137
1323444634.00053549,-0.28704551,0.50098526,-0.82795817
1323444634.04851317,-0.28550270,0.50133234,-0.82813102
1323444634.10119557,-0.28651497,0.49782670,-0.82586753
1323444634.14849162,-0.28615287,0.50037718,-0.82828724
1323444634.20165801,-0.28471071,0.50168240,-0.82783526
1323444634.24852872,-0.28642380,0.50086325,-0.82843298
1323444634.29812431,-0.28672996,0.49844575,-0.82728559
1323444634.34969234,-0.28612325,0.50207895,-0.82982701
1323444634.40053892,-0.28664926,0.49917549,-0.82805097
1323444634.44957900,-0.28541973,0.50449079,-0.83082521
1323444634.50062990,-0.28731012,0.50062811,-0.82809752
1323444634.54849410,-0.28621322,0.50180882,-0.82689887
1323444634.60166264,-0.28717211,0.49858025,-0.82820284
1323444634.64955354,-0.28830442,0.50017297,-0.82967806
1323444634.70372319,-0.28744927,0.50087190,-0.82823431
1323444634.74955058,-0.28530750,0.50218385,-0.82914591
1323444634.80053735,-0.28650069,0.50157630,-0.82742274
1323444634.84851813,-0.28541207,0.50073695,-0.82888645
1323444634.90157533,-0.28664005,0.49989545,-0.82780075
1323444634.94846964,-0.28796110,0.50075573,-0.82813412
1323444635.00051594,-0.28537640,0.50085044,-0.82824808
1323444635.04952073,-0.28544843,0.50266856,-0.82928449
1323444635.09786391,-0.28798789,0.49965489,-0.82647097
1323444635.14870572,-0.28572986,0.50084776,-0.82763022
1323444635.19783425,-0.28640568,0.49941632,-0.82829428
1323444635.24850082,-0.28742316,0.50401777,-0.82965714
1323444635.30152392,-0.28706935,0.50026810,-0.82846409
1323444635.34952950,-0.28541839,0.50158018,-0.82889277
1323444635.40052199,-0.28554469,0.50206208,-0.82877570
1323444635.44967294,-0.28583419,0.50132549,-0.82712960
1323444635.49773049,-0.28640187,0.50085908,-0.82804942
1323444635.54853797,-0.28448534,0.50240791,-0.82833785
1323444635.60056615,-0.28634253,0.49976519,-0.82714629
1323444635.64854002,-0.28517762,0.50122017,-0.82925940
1323444635.68960619,-0.28892890,0.49969411,-0.82932651
1323444635.74963522,-0.28795007,0.50123477,-0.82788199
1323444635.79763269,-0.28745580,0.50097007,-0.82606888
1323444635.84962893,-0.28590825,0.50145990,-0.82840902
1323444635.90051770,-0.28674597,0.50135911,-0.82947367
1323444635.94855714,-0.28561434,0.50063187,-0.83017117
1323444636.00149322,-0.28680381,0.50050473,-0.82832378
1323444636.04851484,-0.28644341,0.50425845,-0.83062476
1323444636.09755850,-0.28730473,0.49990538,-0.82809210
1323444636.14450860,-0.28706858,0.49918532,-0.82858378
1323444636.20053864,-0.28577623,0.50196254,-0.83057183
1323444636.24999690,-0.28530502,0.50107747,-0.82697141
1323444636.29845023,-0.28666773,0.49891508,-0.82613856
1323444636.34856677,-0.28600541,0.50097388,-0.82790112
1323444636.40454602,-0.28771570,0.50075567,-0.82837552
